ETD455 YSSY-OMAA

Flight info

Callsign ETD455
Flight time N/A
Altitude 34000
Route KADOM A576 PKS J141 NEWMO DCT UPSES DCT ISMOR DCT 25S125E DCT GUKON DCT OPOSA DCT MALBI/N0498F360 DCT NODAB DCT TATOD DCT 07S097E 05S094E DCT ELATI/N0492F380 N640 KAT P570 OLNIK/N0485F400 P570 EMURU N563 TULBU P558 SODEX N563 NOBTO
Aircraft A35K/H-SDE2E3GHIJ3J4J5LM1ORWXY/LB1D1

Departure

Time N/A
Airport Sydney Kingsford Smith International Airport (YSSY)

Arrival

Time 2026-04-28 11:27
Airport Zayed International Airport (OMAA)
Time Latitude Longitude Altitude Speed Heading
2026-04-28 08:35 11.83642 72.14152 37818 ft 485 kts 304°
2026-04-28 08:35 11.87541 72.08525 37821 ft 486 kts 304°
2026-04-28 08:36 11.91415 72.02931 37822 ft 486 kts 304°
2026-04-28 08:36 11.95336 71.97303 37836 ft 486 kts 305°
2026-04-28 08:37 11.99362 71.91759 37820 ft 486 kts 305°
2026-04-28 08:37 12.03423 71.86214 37839 ft 487 kts 305°
2026-04-28 08:38 12.07465 71.80661 37823 ft 487 kts 305°
2026-04-28 08:38 12.11497 71.75096 37826 ft 487 kts 305°
2026-04-28 08:39 12.15498 71.69565 37840 ft 487 kts 305°
2026-04-28 08:39 12.19531 71.63987 37827 ft 487 kts 305°
2026-04-28 08:40 12.23563 71.58409 37833 ft 487 kts 305°
2026-04-28 08:40 12.27594 71.52831 37822 ft 487 kts 305°
2026-04-28 08:41 12.31588 71.47299 37821 ft 486 kts 305°
2026-04-28 08:41 12.35604 71.41734 37822 ft 486 kts 305°
2026-04-28 08:42 12.39617 71.36171 37827 ft 485 kts 304°
2026-04-28 08:42 12.43629 71.30604 37828 ft 485 kts 304°
2026-04-28 08:43 12.47613 71.25074 37824 ft 485 kts 304°
2026-04-28 08:43 12.51627 71.19512 37825 ft 485 kts 304°
2026-04-28 08:44 12.55631 71.13954 37823 ft 485 kts 304°
2026-04-28 08:44 12.59637 71.08390 37826 ft 485 kts 304°
2026-04-28 08:45 12.63646 71.02821 37824 ft 486 kts 304°
2026-04-28 08:45 12.67657 70.97245 37821 ft 486 kts 304°
2026-04-28 08:46 12.71669 70.91665 37824 ft 486 kts 304°
2026-04-28 08:46 12.75682 70.86081 37826 ft 486 kts 304°
2026-04-28 08:47 12.79672 70.80526 37827 ft 486 kts 304°
2026-04-28 08:47 12.83675 70.74948 37826 ft 486 kts 304°
2026-04-28 08:48 12.87690 70.69351 37825 ft 486 kts 304°
2026-04-28 08:48 12.91668 70.63802 37832 ft 486 kts 304°
2026-04-28 08:49 12.95668 70.58219 37825 ft 485 kts 304°
2026-04-28 08:49 12.99668 70.52632 37825 ft 485 kts 304°
2026-04-28 08:50 13.03661 70.47053 37875 ft 485 kts 304°
2026-04-28 08:50 13.05655 70.44264 38150 ft 484 kts 304°
2026-04-28 08:50 13.07639 70.41483 38523 ft 482 kts 304°
2026-04-28 08:50 13.09614 70.38703 38824 ft 480 kts 304°
2026-04-28 08:51 13.11548 70.35975 39089 ft 478 kts 304°
2026-04-28 08:51 13.13494 70.33225 39344 ft 477 kts 304°
2026-04-28 08:51 13.15450 70.30462 39598 ft 475 kts 304°
2026-04-28 08:51 13.17394 70.27719 39804 ft 476 kts 304°
2026-04-28 08:52 13.19338 70.24978 39821 ft 476 kts 304°
2026-04-28 08:52 13.23233 70.19486 39831 ft 475 kts 304°
2026-04-28 08:53 13.27098 70.14032 39825 ft 475 kts 304°
2026-04-28 08:53 13.30979 70.08549 39829 ft 474 kts 304°
2026-04-28 08:54 13.34857 70.03068 39830 ft 474 kts 304°
2026-04-28 08:54 13.38737 69.97580 39828 ft 474 kts 304°
2026-04-28 08:55 13.42605 69.92106 39831 ft 474 kts 304°
2026-04-28 08:55 13.46462 69.86643 39832 ft 474 kts 304°
2026-04-28 08:56 13.50331 69.81161 39834 ft 474 kts 304°
2026-04-28 08:56 13.54199 69.75677 39833 ft 474 kts 304°
2026-04-28 08:57 13.58039 69.70229 39830 ft 474 kts 304°
2026-04-28 08:57 13.61908 69.64736 39827 ft 473 kts 304°
2026-04-28 08:58 13.65769 69.59250 39828 ft 473 kts 304°
2026-04-28 08:58 13.69608 69.53793 39829 ft 473 kts 304°
2026-04-28 08:59 13.73466 69.48306 39828 ft 473 kts 304°
2026-04-28 08:59 13.77325 69.42813 39829 ft 473 kts 304°
2026-04-28 09:00 13.81176 69.37328 39830 ft 472 kts 304°
2026-04-28 09:00 13.85029 69.31838 39833 ft 472 kts 304°
2026-04-28 09:01 13.88845 69.26396 39833 ft 471 kts 304°
2026-04-28 09:01 13.92682 69.20919 39831 ft 471 kts 304°
2026-04-28 09:02 13.96518 69.15441 39830 ft 471 kts 304°
2026-04-28 09:02 14.00354 69.09960 39838 ft 471 kts 304°
2026-04-28 09:03 14.04187 69.04480 39833 ft 471 kts 304°
2026-04-28 09:03 14.07993 68.99035 39838 ft 471 kts 304°
2026-04-28 09:04 14.11842 68.93555 39838 ft 471 kts 304°
2026-04-28 09:04 14.15710 68.88091 39837 ft 472 kts 304°
2026-04-28 09:05 14.19575 68.82626 39832 ft 472 kts 304°
2026-04-28 09:05 14.23420 68.77179 39832 ft 472 kts 304°
2026-04-28 09:06 14.27284 68.71698 39824 ft 472 kts 304°
2026-04-28 09:06 14.31147 68.66214 39835 ft 472 kts 304°
2026-04-28 09:07 14.35004 68.60735 39835 ft 472 kts 304°
2026-04-28 09:07 14.38213 68.56175 39837 ft 472 kts 304°
2026-04-28 09:08 14.42071 68.50688 39833 ft 472 kts 304°
2026-04-28 09:08 14.45931 68.45195 39833 ft 472 kts 304°
2026-04-28 09:09 14.49783 68.39711 39825 ft 472 kts 304°
2026-04-28 09:09 14.53635 68.34222 39823 ft 471 kts 304°
2026-04-28 09:10 14.57455 68.28774 39826 ft 471 kts 304°
2026-04-28 09:10 14.61298 68.23289 39828 ft 471 kts 303°
2026-04-28 09:11 14.65135 68.17811 39834 ft 471 kts 303°
2026-04-28 09:11 14.68973 68.12326 39827 ft 471 kts 303°
2026-04-28 09:12 14.72812 68.06837 39825 ft 471 kts 303°
2026-04-28 09:12 14.76649 68.01347 39827 ft 471 kts 303°
2026-04-28 09:13 14.80486 67.95852 39822 ft 471 kts 303°
2026-04-28 09:13 14.84321 67.90357 39825 ft 471 kts 303°
2026-04-28 09:14 14.88157 67.84858 39828 ft 471 kts 303°
2026-04-28 09:14 14.91965 67.79393 39825 ft 471 kts 303°
2026-04-28 09:15 14.95796 67.73892 39830 ft 471 kts 303°
2026-04-28 09:15 14.99630 67.68383 39826 ft 471 kts 303°
2026-04-28 09:16 15.03462 67.62874 39827 ft 471 kts 303°
2026-04-28 09:16 15.07296 67.57356 39828 ft 471 kts 303°
2026-04-28 09:17 15.11127 67.51840 39827 ft 471 kts 303°
2026-04-28 09:17 15.14952 67.46328 39829 ft 471 kts 303°
2026-04-28 09:18 15.18751 67.40851 39827 ft 471 kts 303°
2026-04-28 09:18 15.22575 67.35332 39824 ft 471 kts 303°
2026-04-28 09:19 15.26391 67.29823 39820 ft 470 kts 303°
2026-04-28 09:19 15.30188 67.24335 39825 ft 470 kts 303°
2026-04-28 09:20 15.33998 67.18825 39824 ft 470 kts 304°
2026-04-28 09:20 15.37803 67.13319 39823 ft 470 kts 304°
2026-04-28 09:21 15.41610 67.07806 39830 ft 469 kts 304°
2026-04-28 09:21 15.45388 67.02331 39822 ft 469 kts 304°
2026-04-28 09:22 15.49183 66.96827 39825 ft 469 kts 304°
2026-04-28 09:22 15.52979 66.91318 39815 ft 469 kts 304°
2026-04-28 09:23 15.56768 66.85816 39821 ft 468 kts 304°
2026-04-28 09:23 15.60567 66.80319 39818 ft 469 kts 304°
2026-04-28 09:24 15.64383 66.74878 39820 ft 469 kts 304°
2026-04-28 09:24 15.68228 66.69403 39820 ft 468 kts 304°
2026-04-28 09:25 15.72065 66.63924 39814 ft 468 kts 304°
2026-04-28 09:25 15.75871 66.58480 39818 ft 468 kts 304°
2026-04-28 09:26 15.79698 66.52999 39818 ft 468 kts 304°
2026-04-28 09:26 15.83494 66.47560 39824 ft 468 kts 304°
2026-04-28 09:27 15.89227 66.39339 39822 ft 468 kts 304°
2026-04-28 09:27 15.93043 66.33861 39823 ft 468 kts 304°
2026-04-28 09:28 15.96837 66.28410 39807 ft 468 kts 304°
2026-04-28 09:28 16.00649 66.22930 39822 ft 467 kts 304°
2026-04-28 09:29 16.04469 66.17435 39813 ft 467 kts 304°
2026-04-28 09:29 16.08276 66.11952 39821 ft 467 kts 304°
2026-04-28 09:30 16.12078 66.06476 39818 ft 467 kts 304°
2026-04-28 09:30 16.15857 66.01026 39823 ft 467 kts 304°
2026-04-28 09:31 16.19665 65.95531 39820 ft 467 kts 304°
2026-04-28 09:31 16.23472 65.90033 39818 ft 467 kts 304°
2026-04-28 09:32 16.27274 65.84540 39821 ft 467 kts 304°
2026-04-28 09:32 16.31063 65.79059 39816 ft 467 kts 304°
2026-04-28 09:33 16.34863 65.73560 39817 ft 467 kts 304°
2026-04-28 09:33 16.38640 65.68088 39819 ft 467 kts 304°
2026-04-28 09:34 16.42442 65.62576 39822 ft 468 kts 304°
2026-04-28 09:34 16.46236 65.57072 39820 ft 468 kts 304°
2026-04-28 09:35 16.50015 65.51587 39815 ft 467 kts 304°
2026-04-28 09:35 16.53812 65.46069 39816 ft 468 kts 304°
2026-04-28 09:36 16.57600 65.40562 39817 ft 468 kts 304°
2026-04-28 09:36 16.61397 65.35035 39818 ft 468 kts 304°
2026-04-28 09:37 16.65190 65.29511 39821 ft 468 kts 304°
2026-04-28 09:37 16.68983 65.23983 39806 ft 468 kts 304°
2026-04-28 09:38 16.72776 65.18451 39822 ft 469 kts 304°
2026-04-28 09:38 16.76564 65.12922 39823 ft 469 kts 304°
2026-04-28 09:39 16.80336 65.07411 39824 ft 469 kts 304°
2026-04-28 09:39 16.84129 65.01865 39817 ft 469 kts 304°
2026-04-28 09:40 16.87930 64.96303 39829 ft 469 kts 304°
2026-04-28 09:40 16.91720 64.90752 39813 ft 470 kts 304°
2026-04-28 09:41 16.95499 64.85214 39825 ft 471 kts 304°
2026-04-28 09:41 16.99307 64.79630 39826 ft 471 kts 304°
2026-04-28 09:42 17.03112 64.74043 39816 ft 472 kts 304°
2026-04-28 09:42 17.06915 64.68456 39815 ft 473 kts 304°
2026-04-28 09:43 17.10712 64.62873 39821 ft 473 kts 305°
2026-04-28 09:43 17.14531 64.57254 39820 ft 474 kts 305°
2026-04-28 09:44 17.18353 64.51626 39820 ft 474 kts 305°
2026-04-28 09:44 17.22164 64.46008 39819 ft 475 kts 305°
2026-04-28 09:45 17.25989 64.40365 39824 ft 475 kts 305°
2026-04-28 09:45 17.29822 64.34721 39829 ft 475 kts 306°
2026-04-28 09:46 17.33728 64.29172 39806 ft 476 kts 306°
2026-04-28 09:46 17.37691 64.23606 39825 ft 476 kts 306°
2026-04-28 09:47 17.41641 64.18027 39826 ft 477 kts 306°
2026-04-28 09:47 17.45582 64.12434 39816 ft 477 kts 306°
2026-04-28 09:48 17.49518 64.06835 39813 ft 477 kts 306°
2026-04-28 09:48 17.53434 64.01262 39823 ft 477 kts 306°
2026-04-28 09:49 17.57375 63.95649 39821 ft 477 kts 306°
2026-04-28 09:49 17.61314 63.90036 39801 ft 478 kts 306°
2026-04-28 09:50 17.65254 63.84415 39815 ft 478 kts 306°
2026-04-28 09:50 17.69187 63.78800 39806 ft 478 kts 306°
2026-04-28 09:51 17.73099 63.73211 39816 ft 478 kts 306°
2026-04-28 09:51 17.77035 63.67582 39804 ft 478 kts 306°
2026-04-28 09:52 17.80971 63.61948 39816 ft 478 kts 306°
2026-04-28 09:52 17.84908 63.56309 39820 ft 478 kts 306°
2026-04-28 09:53 17.88819 63.50702 39802 ft 479 kts 306°
2026-04-28 09:53 17.92756 63.45052 39815 ft 479 kts 306°
2026-04-28 09:54 17.96690 63.39403 39808 ft 479 kts 306°
2026-04-28 09:54 17.99964 63.34696 39800 ft 479 kts 306°
2026-04-28 09:55 18.03896 63.29041 39797 ft 479 kts 306°
2026-04-28 09:55 18.07834 63.23371 39808 ft 479 kts 306°
2026-04-28 09:56 18.11745 63.17736 39811 ft 480 kts 306°
2026-04-28 09:56 18.15678 63.12065 39808 ft 480 kts 306°
2026-04-28 09:57 18.19611 63.06386 39812 ft 480 kts 306°
2026-04-28 09:57 18.23542 63.00708 39805 ft 480 kts 306°
2026-04-28 09:58 18.27473 62.95023 39807 ft 480 kts 306°
2026-04-28 09:58 18.31404 62.89334 39800 ft 480 kts 306°
2026-04-28 09:59 18.35332 62.83645 39811 ft 480 kts 306°
2026-04-28 09:59 18.39255 62.77957 39809 ft 480 kts 306°
2026-04-28 10:00 18.43153 62.72300 39798 ft 480 kts 306°
2026-04-28 10:00 18.47078 62.66599 39802 ft 480 kts 306°
2026-04-28 10:01 18.50999 62.60900 39795 ft 480 kts 306°
2026-04-28 10:01 18.54915 62.55202 39800 ft 480 kts 306°
2026-04-28 10:02 18.58828 62.49504 39794 ft 480 kts 306°
2026-04-28 10:02 18.62700 62.43815 39791 ft 480 kts 306°
2026-04-28 10:03 18.66590 62.38047 39797 ft 480 kts 306°
2026-04-28 10:03 18.70434 62.32350 39797 ft 479 kts 306°
2026-04-28 10:04 18.74307 62.26618 39796 ft 479 kts 306°
2026-04-28 10:04 18.78186 62.20873 39798 ft 479 kts 306°
2026-04-28 10:05 18.82049 62.15146 39802 ft 479 kts 306°
2026-04-28 10:05 18.85892 62.09444 39795 ft 479 kts 306°
2026-04-28 10:06 18.89756 62.03704 39782 ft 479 kts 306°
2026-04-28 10:06 18.93617 61.97965 39781 ft 479 kts 306°
2026-04-28 10:07 18.97473 61.92227 39798 ft 478 kts 306°
2026-04-28 10:07 19.01300 61.86526 39784 ft 478 kts 306°
2026-04-28 10:08 19.05153 61.80784 39785 ft 478 kts 306°
2026-04-28 10:08 19.08996 61.75049 39784 ft 478 kts 306°
2026-04-28 10:09 19.12836 61.69313 39779 ft 478 kts 306°
2026-04-28 10:09 19.16682 61.63564 39782 ft 477 kts 306°
2026-04-28 10:10 19.20493 61.57861 39779 ft 477 kts 306°
2026-04-28 10:10 19.24323 61.52125 39778 ft 477 kts 306°
2026-04-28 10:11 19.28153 61.46383 39777 ft 477 kts 306°
2026-04-28 10:11 19.31979 61.40642 39778 ft 477 kts 306°
2026-04-28 10:12 19.35800 61.34894 39775 ft 477 kts 306°
2026-04-28 10:12 19.39595 61.29189 39774 ft 476 kts 306°
2026-04-28 10:13 19.43418 61.23437 39776 ft 476 kts 306°
2026-04-28 10:13 19.47231 61.17700 39772 ft 476 kts 306°
2026-04-28 10:14 19.51020 61.11989 39772 ft 476 kts 306°
2026-04-28 10:14 19.54830 61.06241 39770 ft 476 kts 306°
2026-04-28 10:15 19.58637 61.00491 39771 ft 476 kts 306°
2026-04-28 10:15 19.62437 60.94745 39771 ft 475 kts 306°
2026-04-28 10:16 19.66212 60.89031 39768 ft 475 kts 306°
2026-04-28 10:16 19.70002 60.83290 39770 ft 475 kts 306°
2026-04-28 10:17 19.73801 60.77531 39767 ft 475 kts 306°
2026-04-28 10:17 19.77590 60.71779 39765 ft 475 kts 306°
2026-04-28 10:18 19.81383 60.66017 39763 ft 475 kts 306°
2026-04-28 10:18 19.85168 60.60262 39763 ft 475 kts 306°
2026-04-28 10:19 19.88930 60.54536 39764 ft 475 kts 306°
2026-04-28 10:19 19.92715 60.48770 39761 ft 475 kts 306°
2026-04-28 10:20 19.96499 60.43000 39762 ft 475 kts 306°
2026-04-28 10:20 20.00288 60.37216 39762 ft 475 kts 306°
2026-04-28 10:21 20.04273 60.31614 39757 ft 475 kts 314°
2026-04-28 10:21 20.09354 60.27259 39758 ft 473 kts 327°
2026-04-28 10:22 20.14971 60.23595 39754 ft 473 kts 329°
2026-04-28 10:22 20.20653 60.20041 39755 ft 473 kts 329°
2026-04-28 10:23 20.26330 60.16476 39755 ft 473 kts 329°
2026-04-28 10:23 20.31988 60.12891 39752 ft 473 kts 329°
2026-04-28 10:24 20.37642 60.09294 39753 ft 472 kts 329°
2026-04-28 10:24 20.43250 60.05723 39751 ft 472 kts 329°
2026-04-28 10:25 20.48886 60.02131 39752 ft 472 kts 329°
2026-04-28 10:25 20.54521 59.98539 39749 ft 471 kts 329°
2026-04-28 10:26 20.60151 59.94946 39750 ft 471 kts 329°
2026-04-28 10:26 20.65769 59.91358 39747 ft 471 kts 328°
2026-04-28 10:27 20.71388 59.87766 39746 ft 470 kts 328°
2026-04-28 10:27 20.76999 59.84175 39746 ft 470 kts 328°
2026-04-28 10:28 20.82605 59.80585 39743 ft 469 kts 328°
2026-04-28 10:29 20.91005 59.75200 39741 ft 469 kts 328°
2026-04-28 10:29 20.96568 59.71630 39739 ft 468 kts 328°
2026-04-28 10:30 21.02154 59.68046 39739 ft 468 kts 328°
2026-04-28 10:30 21.07743 59.64454 39739 ft 468 kts 328°
2026-04-28 10:31 21.13315 59.60861 39740 ft 468 kts 328°
2026-04-28 10:31 21.18893 59.57262 39738 ft 467 kts 328°
2026-04-28 10:32 21.24431 59.53690 39736 ft 467 kts 328°
2026-04-28 10:32 21.30007 59.50097 39734 ft 467 kts 328°
2026-04-28 10:33 21.35575 59.46494 39734 ft 467 kts 328°
2026-04-28 10:33 21.41132 59.42893 39732 ft 467 kts 328°
2026-04-28 10:34 21.46700 59.39285 39735 ft 467 kts 328°
2026-04-28 10:34 21.52221 59.35707 39733 ft 466 kts 328°
2026-04-28 10:35 21.57789 59.32094 39736 ft 466 kts 328°
2026-04-28 10:35 21.63343 59.28491 39736 ft 466 kts 328°
2026-04-28 10:36 21.68894 59.24887 39734 ft 466 kts 328°
2026-04-28 10:36 21.74442 59.21277 39735 ft 466 kts 328°
2026-04-28 10:37 21.79998 59.17659 39738 ft 466 kts 328°
2026-04-28 10:37 21.85514 59.14068 39723 ft 467 kts 326°
2026-04-28 10:38 21.91131 59.10400 39737 ft 476 kts 326°
2026-04-28 10:38 21.96794 59.06703 39738 ft 476 kts 326°
2026-04-28 10:39 22.02457 59.03006 39789 ft 475 kts 327°
2026-04-28 10:39 22.08044 58.99351 39740 ft 466 kts 327°
2026-04-28 10:40 22.13548 58.95752 39744 ft 464 kts 327°
2026-04-28 10:40 22.19044 58.92090 39742 ft 464 kts 324°
2026-04-28 10:41 22.23773 58.87407 39748 ft 462 kts 308°
2026-04-28 10:41 22.27196 58.81539 39749 ft 462 kts 299°
2026-04-28 10:42 22.30214 58.75405 39754 ft 462 kts 298°
2026-04-28 10:42 22.33164 58.69281 39753 ft 462 kts 298°
2026-04-28 10:43 22.35668 58.64124 39756 ft 462 kts 298°
2026-04-28 10:43 22.38649 58.58020 39756 ft 462 kts 298°
2026-04-28 10:44 22.42160 58.50844 39758 ft 461 kts 298°
2026-04-28 10:44 22.45140 58.44745 39765 ft 461 kts 298°
2026-04-28 10:45 22.48129 58.38617 39763 ft 461 kts 298°
2026-04-28 10:45 22.50612 58.33522 39765 ft 460 kts 298°
2026-04-28 10:46 22.53601 58.27379 39770 ft 460 kts 298°
2026-04-28 10:46 22.56582 58.21245 39770 ft 460 kts 298°
2026-04-28 10:47 22.59556 58.15118 39775 ft 460 kts 298°
2026-04-28 10:47 22.62530 58.08985 39775 ft 459 kts 298°
2026-04-28 10:48 22.65477 58.02900 39778 ft 459 kts 298°
2026-04-28 10:48 22.68124 57.97427 39776 ft 459 kts 298°
2026-04-28 10:49 22.70740 57.92013 39782 ft 459 kts 298°
2026-04-28 10:49 22.73699 57.85884 39788 ft 458 kts 298°
2026-04-28 10:50 22.76651 57.79760 39792 ft 458 kts 297°
2026-04-28 10:50 22.79597 57.73642 39795 ft 458 kts 297°
2026-04-28 10:51 22.82538 57.67525 39802 ft 458 kts 297°
2026-04-28 10:51 22.85459 57.61443 39807 ft 457 kts 297°
2026-04-28 10:52 22.88651 57.54789 39820 ft 457 kts 297°
2026-04-28 10:52 22.91584 57.48667 39828 ft 457 kts 297°
2026-04-28 10:53 22.94513 57.42546 39836 ft 457 kts 297°
2026-04-28 10:53 22.97419 57.36463 39840 ft 456 kts 297°
2026-04-28 10:54 22.99687 57.30051 39843 ft 456 kts 284°
2026-04-28 10:54 23.00443 57.23198 39847 ft 458 kts 275°
2026-04-28 10:55 23.00620 57.16283 39850 ft 459 kts 272°
2026-04-28 10:55 23.00711 57.09378 39850 ft 459 kts 273°
2026-04-28 10:56 23.00849 57.02452 39842 ft 458 kts 274°
2026-04-28 10:56 23.02181 56.95751 39852 ft 454 kts 294°
2026-04-28 10:57 23.04902 56.89572 39854 ft 454 kts 297°
2026-04-28 10:57 23.07835 56.83491 39850 ft 454 kts 297°
2026-04-28 10:58 23.10758 56.77455 39841 ft 454 kts 297°
2026-04-28 10:58 23.13675 56.71357 39830 ft 453 kts 297°
2026-04-28 10:59 23.16566 56.65271 39827 ft 453 kts 297°
2026-04-28 10:59 23.19439 56.59210 39830 ft 453 kts 297°
2026-04-28 11:00 23.22326 56.53111 39821 ft 453 kts 297°
2026-04-28 11:00 23.25205 56.47025 39819 ft 452 kts 297°
2026-04-28 11:00 23.26637 56.43998 39401 ft 448 kts 297°
2026-04-28 11:01 23.28066 56.40971 38743 ft 450 kts 297°
2026-04-28 11:01 23.29500 56.37933 38046 ft 451 kts 297°
2026-04-28 11:01 23.30918 56.34928 37241 ft 454 kts 297°
2026-04-28 11:01 23.32384 56.31821 36369 ft 457 kts 297°
2026-04-28 11:02 23.33822 56.28772 35559 ft 460 kts 297°
2026-04-28 11:02 23.35286 56.25664 34735 ft 463 kts 297°
2026-04-28 11:02 23.36762 56.22529 33938 ft 467 kts 297°
2026-04-28 11:02 23.38245 56.19375 33021 ft 469 kts 296°
2026-04-28 11:03 23.39721 56.16238 32132 ft 471 kts 296°
2026-04-28 11:03 23.41213 56.13059 31263 ft 472 kts 296°
2026-04-28 11:03 23.42709 56.09871 30415 ft 472 kts 296°
2026-04-28 11:03 23.44203 56.06688 29588 ft 472 kts 296°
2026-04-28 11:04 23.45696 56.03504 28707 ft 471 kts 296°
2026-04-28 11:04 23.47182 56.00332 27867 ft 469 kts 296°
2026-04-28 11:04 23.48662 55.97170 27118 ft 466 kts 296°
2026-04-28 11:04 23.50126 55.94038 26423 ft 463 kts 295°
2026-04-28 11:05 23.51550 55.90993 25585 ft 447 kts 295°
2026-04-28 11:05 23.52944 55.88015 24371 ft 436 kts 295°
2026-04-28 11:05 23.54370 55.85198 23816 ft 412 kts 301°
2026-04-28 11:05 23.56097 55.82802 23313 ft 392 kts 309°
2026-04-28 11:06 23.57954 55.80602 22752 ft 399 kts 311°
2026-04-28 11:06 23.59898 55.78431 22161 ft 400 kts 312°
2026-04-28 11:06 23.61873 55.76300 21614 ft 398 kts 313°
2026-04-28 11:06 23.63855 55.74190 21056 ft 397 kts 313°
2026-04-28 11:07 23.65815 55.72107 20496 ft 396 kts 313°
2026-04-28 11:07 23.67784 55.70007 19935 ft 396 kts 313°
2026-04-28 11:07 23.69752 55.67898 19363 ft 396 kts 313°
2026-04-28 11:07 23.71049 55.66503 18981 ft 396 kts 313°
2026-04-28 11:08 23.73010 55.64388 18405 ft 396 kts 313°
2026-04-28 11:08 23.74974 55.62267 17769 ft 397 kts 313°
2026-04-28 11:08 23.77566 55.59462 16966 ft 394 kts 313°
2026-04-28 11:08 23.79504 55.57365 16388 ft 391 kts 313°
2026-04-28 11:09 23.80809 55.55952 15988 ft 389 kts 313°
2026-04-28 11:09 23.82592 55.53766 15403 ft 383 kts 304°
2026-04-28 11:09 23.83971 55.51304 14823 ft 379 kts 297°
2026-04-28 11:09 23.85149 55.48786 14481 ft 370 kts 294°
2026-04-28 11:10 23.86201 55.46296 14353 ft 354 kts 292°
2026-04-28 11:10 23.87171 55.43868 14230 ft 340 kts 292°
2026-04-28 11:10 23.88101 55.41550 14105 ft 327 kts 292°
2026-04-28 11:10 23.89004 55.39323 13966 ft 315 kts 292°
2026-04-28 11:11 23.89879 55.37177 13825 ft 304 kts 292°
2026-04-28 11:11 23.90734 55.35090 13513 ft 300 kts 292°
2026-04-28 11:11 23.91584 55.33016 13103 ft 297 kts 293°
2026-04-28 11:11 23.92428 55.30965 12834 ft 293 kts 293°
2026-04-28 11:12 23.93306 55.28980 12791 ft 294 kts 296°
2026-04-28 11:12 23.94256 55.27007 12684 ft 291 kts 296°
2026-04-28 11:12 23.95202 55.25047 12218 ft 292 kts 296°
2026-04-28 11:12 23.96142 55.23079 11789 ft 291 kts 296°
2026-04-28 11:13 23.97061 55.21141 11595 ft 282 kts 296°
2026-04-28 11:13 23.97950 55.19264 11394 ft 273 kts 296°
2026-04-28 11:13 23.98818 55.17429 11131 ft 269 kts 296°
2026-04-28 11:13 23.99657 55.15651 10881 ft 264 kts 296°
2026-04-28 11:14 24.00493 55.13879 10598 ft 261 kts 296°
2026-04-28 11:14 24.01314 55.12136 10347 ft 257 kts 296°
2026-04-28 11:14 24.02126 55.10410 10042 ft 254 kts 297°
2026-04-28 11:14 24.02941 55.08687 9721 ft 256 kts 297°
2026-04-28 11:15 24.03739 55.06989 9421 ft 244 kts 297°
2026-04-28 11:15 24.04494 55.05380 9158 ft 232 kts 297°
2026-04-28 11:15 24.05236 55.03828 8928 ft 229 kts 300°
2026-04-28 11:15 24.06127 55.02393 8674 ft 228 kts 307°
2026-04-28 11:16 24.07048 55.01098 8450 ft 228 kts 308°
2026-04-28 11:16 24.08018 54.99754 8219 ft 227 kts 308°
2026-04-28 11:16 24.09029 54.98444 7986 ft 226 kts 315°
2026-04-28 11:16 24.10370 54.97573 7745 ft 227 kts 343°
2026-04-28 11:17 24.11952 54.97592 7478 ft 234 kts 14°
2026-04-28 11:17 24.13379 54.98473 7210 ft 238 kts 33°
2026-04-28 11:17 24.14681 54.99593 6949 ft 237 kts 33°
2026-04-28 11:17 24.16113 55.00390 6707 ft 227 kts
2026-04-28 11:18 24.17607 55.00119 6489 ft 217 kts 328°
2026-04-28 11:18 24.18821 54.99140 6246 ft 218 kts 319°
2026-04-28 11:18 24.19911 54.97993 6050 ft 217 kts 314°
2026-04-28 11:18 24.20893 54.96756 6041 ft 218 kts 310°
2026-04-28 11:19 24.21826 54.95444 6043 ft 219 kts 308°
2026-04-28 11:19 24.22748 54.94118 5968 ft 218 kts 309°
2026-04-28 11:19 24.23663 54.92827 5759 ft 211 kts 309°
2026-04-28 11:19 24.24563 54.91566 5494 ft 209 kts 309°
2026-04-28 11:20 24.25459 54.90302 5182 ft 210 kts 309°
2026-04-28 11:20 24.26356 54.89037 4867 ft 210 kts 309°
2026-04-28 11:20 24.27252 54.87774 4569 ft 208 kts 309°
2026-04-28 11:20 24.28139 54.86522 4267 ft 207 kts 310°
2026-04-28 11:21 24.29013 54.85289 3998 ft 203 kts 310°
2026-04-28 11:21 24.29872 54.84077 3742 ft 199 kts 310°
2026-04-28 11:21 24.30716 54.82887 3505 ft 196 kts 310°
2026-04-28 11:21 24.31540 54.81724 3287 ft 189 kts 310°
2026-04-28 11:22 24.32337 54.80600 3052 ft 183 kts 310°
2026-04-28 11:22 24.33107 54.79513 2797 ft 178 kts 310°
2026-04-28 11:22 24.33856 54.78455 2579 ft 173 kts 310°
2026-04-28 11:22 24.34576 54.77439 2345 ft 168 kts 310°
2026-04-28 11:23 24.35276 54.76450 2167 ft 162 kts 309°
2026-04-28 11:23 24.35965 54.75477 1949 ft 160 kts 309°
2026-04-28 11:23 24.36634 54.74535 1737 ft 150 kts 309°
2026-04-28 11:23 24.37236 54.73681 1561 ft 133 kts 309°
2026-04-28 11:24 24.37789 54.72902 1407 ft 129 kts 310°
2026-04-28 11:24 24.38349 54.72114 1246 ft 132 kts 310°
2026-04-28 11:24 24.38911 54.71319 1063 ft 130 kts 309°
2026-04-28 11:24 24.39457 54.70543 920 ft 126 kts 308°
2026-04-28 11:25 24.40000 54.69775 775 ft 130 kts 310°
2026-04-28 11:25 24.40565 54.68979 631 ft 134 kts 312°
2026-04-28 11:25 24.41128 54.68192 453 ft 133 kts 307°
2026-04-28 11:25 24.41701 54.67374 271 ft 137 kts 307°
2026-04-28 11:26 24.42275 54.66555 114 ft 136 kts 311°
2026-04-28 11:26 24.42813 54.65755 105 ft 131 kts 309°
2026-04-28 11:26 24.43378 54.64977 95 ft 123 kts 316°
2026-04-28 11:26 24.43863 54.64335 88 ft 83 kts 307°
2026-04-28 11:27 24.43995 54.64176 89 ft 1 kts
2026-04-28 11:27 24.44002 54.64180 89 ft 1 kts 20°
2026-04-28 11:27 24.44017 54.64195 88 ft 6 kts 45°
2026-04-28 11:27 24.44066 54.64249 88 ft 14 kts 45°
2026-04-28 11:28 24.44153 54.64328 88 ft 18 kts 36°
2026-04-28 11:28 24.44268 54.64420 85 ft 23 kts 29°
2026-04-28 11:28 24.44400 54.64459 86 ft 0 kts 356°